[[{"header":{"parameterUnit":"m.s-1","parameterCategory":2,"la1":30.2992,"la2":30.254,"lo1":-89.0895,"lo2":-89.0443,"dy":0.0025,"dx":0.0025,"nx":19,"ny":19,"refTime":"2026-05-11T09:00:00:Z","depth":"0","parameterNumber":2,"parameterNumberName":"U-component_of_CURRENTS"},"data":[0,0,0,0.086,0.0861,0.0942,0.0943,0.1035,0.1035,0,0,0,0,0,0,0,0,0,0,0,0.0844,0.0844,0.086,0.0861,0.0942,0.0943,0.1034,0.1035,0,0,0,0,0,0,0,0,0,0,0,0.0843,0.0844,0.0844,0.0861,0.0942,0.0943,0.1034,0.0982,0,0,0,0,0,0,0,0,0,0,0.0907,0.0867,0.0844,0.0844,0.0862,0.0942,0.0943,0.0979,0.0985,0.0987,0,0.0995,0,0.1001,0.1039,0.1039,0,0,0,0.0884,0.0863,0.0896,0.0844,0.0862,0.0941,0.0912,0.0983,0.0989,0.0994,0.0996,0.0999,0.1003,0.1039,0.1039,0.1058,0.1058,0,0,0.0879,0.085,0.0891,0.0899,0.0876,0.0909,0.0914,0.0987,0.0983,0.0996,0.1001,0.1004,0.104,0.104,0.1058,0.1058,0,0,0,0.0851,0.0846,0.0878,0.0896,0.0903,0.0911,0.0917,0.098,0.0994,0.1002,0.1005,0.104,0.1041,0.1058,0.1058,0.1063,0,0,0,0.085,0.0829,0.0876,0.0858,0.0901,0.0938,0.0908,0.0989,0.0997,0.1005,0.104,0.1041,0.1058,0.1058,0.1063,0.1038,0,0,0,0.0841,0.0827,0.0837,0.0857,0.0881,0.0937,0.0956,0.0992,0.0998,0.1039,0.1041,0.1059,0.1058,0.1063,0.1039,0.1064,0,0,0,0.0809,0.0805,0.0836,0.084,0.088,0.0926,0.0956,0.0988,0.1021,0.104,0.1058,0.1058,0.1063,0.104,0.1064,0.1092,0.1093,0,0,0.0785,0.0801,0.0808,0.0838,0.087,0.0917,0.0945,0.0996,0.1012,0.1038,0.1039,0.1063,0.1039,0.1064,0.1061,0.1063,0,0,0,0.0789,0.0794,0.0807,0.0838,0.0883,0.0915,0.0966,0.099,0.1027,0.1024,0.1051,0.1035,0.1051,0.1068,0.1069,0.1124,0.1055,0.1056,0.1056,0.0735,0.0777,0.0785,0.0833,0.0867,0.0922,0.0953,0.0992,0.1017,0.1024,0.1031,0.1036,0.1053,0.1055,0.1111,0.1036,0.1036,0.1036,0.1036,0.0704,0.0718,0.077,0.0788,0.0844,0.0876,0.0947,0.0972,0.1015,0.1019,0.1037,0.106,0.1057,0.1116,0.1036,0.1036,0.1036,0.1036,0.1036,0.0679,0.0688,0.07,0.0747,0.0782,0.0842,0.0893,0.0951,0.0997,0.1014,0.1054,0.1054,0.1115,0.1037,0.1037,0.1037,0.1037,0.1037,0.1037,0.0645,0.0658,0.0661,0.0703,0.0726,0.0774,0.0866,0.0923,0.1012,0.1038,0.1039,0.1117,0.1036,0.1046,0.1037,0.1037,0.1037,0.1037,0.1037,0.0625,0.0623,0.0619,0.0633,0.0681,0.0725,0.0818,0.0948,0.1015,0.1053,0.1151,0.1069,0.107,0.1069,0.1079,0.1079,0.1079,0.1079,0.1079,0.0602,0.0608,0.0572,0.058,0.0628,0.0693,0.0796,0.0925,0.1097,0.1179,0.12,0.1217,0.1212,0.1223,0.1219,0.1232,0.1271,0.1271,0.1271,0.0585,0.0564,0.0537,0.0539,0.059,0.067,0.0766,0.0903,0.1169,0.1284,0.1272,0.1264,0.1292,0.1281,0.1299,0.1289,0.131,0,0]},{"header":{"parameterUnit":"m.s-1","parameterCategory":2,"la1":30.2992,"la2":30.254,"lo1":-89.0895,"lo2":-89.0443,"dy":0.0025,"dx":0.0025,"nx":19,"ny":19,"refTime":"2026-05-11T09:00:00:Z","depth":"0","parameterNumber":3,"parameterNumberName":"V-component_of_CURRENTS"},"data":[0,0,0,-0.0916,-0.0921,-0.1241,-0.1243,-0.15,-0.1501,0,0,0,0,0,0,0,0,0,0,0,-0.0821,-0.0823,-0.0915,-0.0921,-0.1241,-0.1243,-0.15,-0.1501,0,0,0,0,0,0,0,0,0,0,0,-0.0821,-0.0822,-0.0824,-0.0922,-0.1241,-0.1244,-0.15,-0.131,0,0,0,0,0,0,0,0,0,0,-0.1023,-0.0899,-0.0822,-0.0824,-0.0924,-0.124,-0.1244,-0.1303,-0.1321,-0.1294,0,-0.1327,0,-0.1384,-0.151,-0.151,0,0,0,-0.0978,-0.0884,-0.0994,-0.0824,-0.0926,-0.124,-0.1113,-0.1315,-0.1336,-0.1317,-0.1331,-0.1342,-0.1388,-0.1511,-0.1511,-0.1578,-0.1578,0,0,-0.096,-0.0861,-0.098,-0.1006,-0.0984,-0.1102,-0.1122,-0.133,-0.132,-0.1332,-0.1349,-0.1393,-0.1512,-0.1513,-0.1578,-0.1578,0,0,0,-0.0871,-0.0847,-0.0958,-0.0994,-0.1045,-0.111,-0.1133,-0.1313,-0.1356,-0.1352,-0.1396,-0.1512,-0.1514,-0.1578,-0.1578,-0.1458,0,0,0,-0.0863,-0.0793,-0.0949,-0.0891,-0.1041,-0.1191,-0.111,-0.1344,-0.1369,-0.1394,-0.1512,-0.1515,-0.1579,-0.1578,-0.1462,-0.1378,0,0,0,-0.0811,-0.0786,-0.0823,-0.0885,-0.1001,-0.1191,-0.125,-0.1353,-0.139,-0.1511,-0.1516,-0.1579,-0.1578,-0.1465,-0.1386,-0.1387,0,0,0,-0.0704,-0.0725,-0.082,-0.086,-0.0997,-0.1149,-0.125,-0.1356,-0.1448,-0.1513,-0.1579,-0.1578,-0.1466,-0.139,-0.139,-0.1312,-0.1289,0,0,-0.0674,-0.0718,-0.075,-0.0843,-0.0939,-0.111,-0.1206,-0.1356,-0.1431,-0.151,-0.1514,-0.146,-0.1386,-0.1387,-0.1281,-0.1259,0,0,0,-0.0705,-0.0724,-0.0773,-0.0852,-0.0987,-0.1102,-0.1272,-0.1328,-0.1423,-0.1475,-0.1483,-0.144,-0.1445,-0.1406,-0.1389,-0.1393,-0.1575,-0.1576,-0.1576,-0.0553,-0.0657,-0.0696,-0.0839,-0.0925,-0.1094,-0.1182,-0.1287,-0.137,-0.1377,-0.136,-0.1297,-0.1254,-0.124,-0.1245,-0.1399,-0.1398,-0.1398,-0.1398,-0.0514,-0.0539,-0.0642,-0.0713,-0.0831,-0.0915,-0.1099,-0.1167,-0.1224,-0.1282,-0.1295,-0.1302,-0.1214,-0.1227,-0.139,-0.1392,-0.1393,-0.1393,-0.1394,-0.0435,-0.0446,-0.0514,-0.0594,-0.0651,-0.0813,-0.086,-0.0982,-0.1104,-0.1086,-0.1109,-0.111,-0.111,-0.1109,-0.1109,-0.1108,-0.1108,-0.1108,-0.1108,-0.0307,-0.0378,-0.04,-0.0472,-0.0507,-0.0569,-0.0712,-0.0778,-0.0886,-0.0955,-0.0957,-0.1076,-0.121,-0.1208,-0.1102,-0.1103,-0.1104,-0.1104,-0.1104,-0.0213,-0.0252,-0.0287,-0.0318,-0.0386,-0.0381,-0.0508,-0.0598,-0.0679,-0.0715,-0.0847,-0.0927,-0.0966,-0.0981,-0.0975,-0.0815,-0.0815,-0.0815,-0.0815,-0.0124,-0.015,-0.021,-0.0266,-0.028,-0.0324,-0.0278,-0.0361,-0.0564,-0.0649,-0.0731,-0.0767,-0.0779,-0.0811,-0.083,-0.0824,-0.0629,-0.0629,-0.0629,-0.0063,-0.0096,-0.0118,-0.021,-0.0252,-0.0237,-0.0142,-0.0132,-0.0435,-0.0627,-0.0748,-0.0755,-0.082,-0.0839,-0.0906,-0.0932,-0.093,0,0]}],[{"header":{"parameterUnit":"m.s-1","parameterCategory":2,"la1":30.2992,"la2":30.254,"lo1":-89.0895,"lo2":-89.0443,"dy":0.0025,"dx":0.0025,"nx":19,"ny":19,"refTime":"2026-05-11T09:00:00:Z","depth":"2","parameterNumber":2,"parameterNumberName":"U-component_of_CURRENTS"},"data":[0,0,0,0.1092,0.1093,0.1176,0.1177,0.1207,0.1207,0,0,0,0,0,0,0,0,0,0,0,0.105,0.105,0.1092,0.1093,0.1176,0.1177,0.1207,0.1207,0,0,0,0,0,0,0,0,0,0,0,0.105,0.105,0.105,0.1093,0.1176,0.1177,0.1207,0.1166,0,0,0,0,0,0,0,0,0,0,0.1096,0.1061,0.105,0.105,0.1094,0.1176,0.1177,0.1165,0.1169,0.1143,0,0.114,0,0.1171,0.1206,0.1206,0,0,0,0.1106,0.1059,0.1082,0.105,0.1094,0.1176,0.1142,0.1168,0.1172,0.1147,0.1141,0.1143,0.1172,0.1206,0.1206,0.1271,0.1272,0,0,0.1102,0.1067,0.108,0.1084,0.1092,0.114,0.1145,0.1171,0.1162,0.1141,0.1144,0.1172,0.1206,0.1206,0.127,0.1271,0,0,0,0.108,0.1063,0.1089,0.1082,0.1102,0.1142,0.1148,0.1161,0.1169,0.1145,0.1173,0.1206,0.1206,0.1269,0.1271,0.1217,0,0,0,0.1077,0.105,0.1086,0.1067,0.1101,0.1142,0.1136,0.1167,0.1172,0.1173,0.1206,0.1205,0.1268,0.127,0.1216,0.1204,0,0,0,0.105,0.1048,0.1051,0.1065,0.1098,0.1143,0.1155,0.117,0.1188,0.1206,0.1205,0.1268,0.127,0.1216,0.1203,0.1228,0,0,0,0.1023,0.1027,0.1049,0.106,0.1097,0.115,0.1155,0.1183,0.1196,0.1206,0.1269,0.127,0.1216,0.1203,0.1228,0.1261,0.1266,0,0,0.102,0.1025,0.1035,0.1059,0.1077,0.1141,0.1168,0.1177,0.1224,0.1254,0.1256,0.1217,0.1203,0.1228,0.1373,0.1374,0,0,0,0.1031,0.1024,0.1032,0.105,0.1098,0.1151,0.118,0.1188,0.1239,0.1241,0.1272,0.1267,0.1283,0.1304,0.1306,0.128,0.1279,0.1279,0.1279,0.0965,0.1002,0.1006,0.1052,0.1093,0.1147,0.1189,0.1229,0.1226,0.1258,0.1263,0.1302,0.1325,0.1327,0.1305,0.1304,0.1304,0.1304,0.1304,0.0942,0.0954,0.0991,0.1006,0.1068,0.1107,0.1205,0.1219,0.1258,0.1264,0.1282,0.1296,0.1326,0.1301,0.1302,0.1302,0.1302,0.1303,0.1303,0.0903,0.0919,0.0923,0.0964,0.0999,0.1082,0.1147,0.1188,0.1257,0.1266,0.1316,0.1317,0.1252,0.1269,0.1269,0.1269,0.1269,0.1269,0.1269,0.0871,0.0885,0.0878,0.0916,0.0933,0.0995,0.1096,0.1172,0.1265,0.129,0.129,0.1291,0.1292,0.1255,0.127,0.127,0.127,0.127,0.127,0.0842,0.0858,0.0846,0.0847,0.0875,0.0921,0.1029,0.1182,0.1255,0.1319,0.1324,0.1322,0.1351,0.1351,0.1318,0.1349,0.1349,0.1349,0.1349,0.0825,0.0835,0.0804,0.0792,0.082,0.0884,0.0993,0.1119,0.1253,0.1279,0.1281,0.1272,0.1272,0.1295,0.1296,0.1262,0.1278,0.1277,0.1277,0.0806,0.0806,0.0767,0.0759,0.0777,0.0866,0.0935,0.0939,0.1043,0.1268,0.12,0.1357,0.1352,0.1348,0.1392,0.139,0.1338,0,0]},{"header":{"parameterUnit":"m.s-1","parameterCategory":2,"la1":30.2992,"la2":30.254,"lo1":-89.0895,"lo2":-89.0443,"dy":0.0025,"dx":0.0025,"nx":19,"ny":19,"refTime":"2026-05-11T09:00:00:Z","depth":"2","parameterNumber":3,"parameterNumberName":"V-component_of_CURRENTS"},"data":[0,0,0,-0.005,-0.0053,-0.0062,-0.0061,-0.0262,-0.0266,0,0,0,0,0,0,0,0,0,0,0,-0.0002,-0.0004,-0.0049,-0.0054,-0.0062,-0.0061,-0.0262,-0.0266,0,0,0,0,0,0,0,0,0,0,0,-0.0001,-0.0003,-0.0005,-0.0054,-0.0062,-0.006,-0.0261,-0.0181,0,0,0,0,0,0,0,0,0,0,-0.0138,-0.0082,-0.0003,-0.0005,-0.0055,-0.0063,-0.006,-0.0174,-0.0187,-0.0347,0,-0.039,0,-0.0412,-0.0294,-0.0295,0,0,0,0.0054,-0.0071,-0.0131,-0.0006,-0.0057,-0.0063,-0.0028,-0.0178,-0.0193,-0.0365,-0.0393,-0.0401,-0.0416,-0.0297,-0.0299,-0.0487,-0.0486,0,0,0.0055,0.0055,-0.0121,-0.0141,-0.0124,-0.0028,-0.003,-0.0184,-0.0201,-0.0394,-0.0406,-0.0419,-0.0299,-0.0303,-0.0488,-0.0487,0,0,0,-0.0017,0.0055,0.0009,-0.0133,-0.0164,-0.0031,-0.0032,-0.0189,-0.0223,-0.0408,-0.0421,-0.0302,-0.0307,-0.0489,-0.0488,-0.0538,0,0,0,-0.0011,0.0004,0.0008,0.0018,-0.0162,-0.0152,-0.0034,-0.0207,-0.0228,-0.042,-0.0302,-0.0311,-0.0491,-0.0489,-0.0539,-0.0491,0,0,0,0.001,0.0008,-0.0023,0.0016,-0.0048,-0.0149,-0.018,-0.0208,-0.0245,-0.0296,-0.0312,-0.0491,-0.0489,-0.054,-0.0495,-0.0476,0,0,0,0.0057,0.0047,-0.0023,-0.0048,-0.0049,-0.0102,-0.0177,-0.0247,-0.0291,-0.0304,-0.049,-0.0488,-0.054,-0.0496,-0.0478,-0.0384,-0.0368,0,0,0.0088,0.0051,0.0037,-0.0028,-0.0098,-0.0089,-0.0123,-0.0251,-0.0294,-0.044,-0.0442,-0.0539,-0.0495,-0.0476,-0.024,-0.0229,0,0,0,0.0077,0.0052,0.002,-0.005,-0.0114,-0.0068,-0.0178,-0.0253,-0.0329,-0.0333,-0.0473,-0.044,-0.043,-0.0375,-0.0365,-0.0476,-0.0476,-0.0477,-0.0477,0.0109,0.0063,0.0033,0.0006,-0.0037,-0.0128,-0.0139,-0.0232,-0.0355,-0.0359,-0.0438,-0.0382,-0.0323,-0.0315,-0.042,-0.0421,-0.0421,-0.0421,-0.0421,0.0155,0.0138,0.0056,0.0018,-0.0015,-0.0064,-0.0124,-0.0196,-0.0325,-0.0359,-0.0351,-0.0372,-0.0307,-0.0424,-0.0423,-0.0423,-0.0422,-0.0422,-0.0422,0.0155,0.0163,0.0119,0.0068,-0.0007,-0.0031,-0.0109,-0.0217,-0.0272,-0.0339,-0.0281,-0.0279,-0.0419,-0.037,-0.0369,-0.0369,-0.0369,-0.0369,-0.0368,0.0216,0.0186,0.0155,0.0111,0.0056,0.0016,-0.0085,-0.0114,-0.0169,-0.0246,-0.0247,-0.0363,-0.0365,-0.041,-0.0364,-0.0365,-0.0365,-0.0366,-0.0366,0.0256,0.0246,0.023,0.0188,0.0106,0.013,0.0067,0.0048,-0.0005,0.0005,-0.019,-0.0196,-0.0155,-0.0161,-0.0197,-0.0098,-0.0098,-0.0098,-0.0098,0.0294,0.029,0.0272,0.021,0.0183,0.0174,0.028,0.0306,0.0213,0.0193,0.0181,0.0176,0.0158,0.0217,0.0202,0.0173,0.0369,0.037,0.0371,0.0337,0.0356,0.0319,0.0243,0.0191,0.0271,0.0353,0.0389,0.0409,0.0392,0.0295,-0.0073,-0.0118,-0.0131,-0.0072,-0.0084,-0.0143,0,0]}],[{"header":{"parameterUnit":"m.s-1","parameterCategory":2,"la1":30.2992,"la2":30.254,"lo1":-89.0895,"lo2":-89.0443,"dy":0.0025,"dx":0.0025,"nx":19,"ny":19,"refTime":"2026-05-11T09:00:00:Z","depth":"4","parameterNumber":2,"parameterNumberName":"U-component_of_CURRENTS"},"data":[0,0,0,0.0525,0.0529,0.0648,0.0648,0.0494,0.0493,0,0,0,0,0,0,0,0,0,0,0,0.0493,0.0496,0.0524,0.053,0.0648,0.0648,0.0494,0.0493,0,0,0,0,0,0,0,0,0,0,0,0.0492,0.0495,0.0499,0.0531,0.0648,0.0648,0.0495,0.0465,0,0,0,0,0,0,0,0,0,0,0.0381,0.0417,0.0494,0.0499,0.0532,0.0648,0.0648,0.0466,0.0467,0.0374,0,0.0463,0,0.0494,0.0481,0.0481,0,0,0,0.0464,0.0417,0.0465,0.0499,0.0534,0.0649,0.0576,0.0469,0.0469,0.0373,0.0462,0.0458,0.0492,0.048,0.0479,0.0381,0.0382,0,0,0.0457,0.0472,0.0467,0.0469,0.0651,0.0573,0.0581,0.0471,0.0491,0.0461,0.0456,0.0489,0.0479,0.0478,0.0381,0.0382,0,0,0,0.0483,0.0468,0.0523,0.0472,0.0531,0.0578,0.0587,0.0495,0.0523,0.0454,0.0487,0.0478,0.0476,0.0381,0.0381,0.05,0,0,0,0.0475,0.0488,0.0522,0.0524,0.0538,0.0557,0.0613,0.053,0.052,0.0488,0.0478,0.0475,0.0381,0.0381,0.0496,0.0549,0,0,0,0.0472,0.0485,0.0531,0.0526,0.0609,0.0561,0.0579,0.0529,0.054,0.0481,0.0474,0.0381,0.0381,0.0493,0.0543,0.0595,0,0,0,0.0431,0.0516,0.0533,0.0621,0.061,0.0626,0.0581,0.0565,0.0522,0.0477,0.0381,0.0381,0.0492,0.0539,0.0591,0.0388,0,0,0,0.0496,0.0525,0.0566,0.0585,0.0631,0.0599,0.0597,0.0535,0.0489,0.0382,0.0383,0.0497,0.0542,0.0594,0.0414,0,0,0,0,0.0554,0.0598,0.0612,0.0662,0.0661,0.0644,0.059,0.0565,0.0528,0.0485,0.0472,0.0496,0.0526,0.0394,0.0383,0.0383,0.0383,0.0383,0.0383,0.0593,0.0609,0.0661,0.0682,0.0684,0.0652,0.0637,0.0588,0.0539,0.0555,0.0575,0.067,0.0532,0.0551,0.0552,0.0552,0.0553,0.0553,0.0553,0.0655,0.0678,0.0695,0.0759,0.0733,0.0725,0.0678,0.0674,0.0687,0.0637,0.0661,0.0504,0.0564,0.0562,0.056,0.0559,0.0558,0.0558,0.0557,0.0632,0.0653,0.0732,0.0817,0.0829,0.0804,0.0804,0.0822,0.0799,0.0836,0.0695,0.0744,0.0755,0.0871,0.0872,0.0872,0.0873,0.0873,0.0873,0.059,0.0671,0.0776,0.0864,0.0896,0.0909,0.0919,0.0867,0.0871,0.0802,0.0895,0.0776,0.0766,0.0771,0.0881,0.088,0.0879,0.0878,0.0877,0.0572,0.0672,0.0783,0.0858,0.0926,0.0872,0.0944,0.0809,0.0794,0.07,0.0756,0.076,0.0697,0.0689,0.0689,0.0779,0.0777,0.0775,0,0.0566,0.0617,0.0778,0.0847,0.0825,0.0821,0.0702,0.063,0.0615,0.0652,0.0724,0.0792,0.0792,0.0718,0.0708,0.0705,0,0,0,0.0576,0.0604,0.0659,0.0761,0.0731,0.0618,0.0627,0.057,0.0727,0.0513,0.072,0.0734,0.0636,0.0903,0.0816,0.0803,0.0807,0,0]},{"header":{"parameterUnit":"m.s-1","parameterCategory":2,"la1":30.2992,"la2":30.254,"lo1":-89.0895,"lo2":-89.0443,"dy":0.0025,"dx":0.0025,"nx":19,"ny":19,"refTime":"2026-05-11T09:00:00:Z","depth":"4","parameterNumber":3,"parameterNumberName":"V-component_of_CURRENTS"},"data":[0,0,0,0.0534,0.0536,0.0566,0.0566,0.0436,0.0435,0,0,0,0,0,0,0,0,0,0,0,0.0546,0.0548,0.0534,0.0536,0.0566,0.0566,0.0436,0.0435,0,0,0,0,0,0,0,0,0,0,0,0.0545,0.0548,0.055,0.0536,0.0566,0.0566,0.0437,0.0446,0,0,0,0,0,0,0,0,0,0,0.0434,0.0493,0.0547,0.055,0.0537,0.0566,0.0566,0.0448,0.0445,0.0387,0,0.0448,0,0.0443,0.0426,0.0426,0,0,0,0.0496,0.0496,0.05,0.055,0.0538,0.0566,0.0541,0.0448,0.0444,0.0383,0.0446,0.0442,0.0441,0.0425,0.0425,0.0303,0.0303,0,0,0.0494,0.0535,0.0503,0.05,0.0615,0.0541,0.0543,0.0447,0.0472,0.0446,0.0439,0.0439,0.0425,0.0424,0.0304,0.0303,0,0,0,0.0517,0.0535,0.0544,0.0505,0.0527,0.0542,0.0545,0.0476,0.0481,0.0438,0.0438,0.0424,0.0422,0.0304,0.0303,0.0366,0,0,0,0.0513,0.055,0.0544,0.0565,0.0532,0.0527,0.0576,0.0488,0.0477,0.0438,0.0424,0.0421,0.0304,0.0304,0.0365,0.0391,0,0,0,0.0532,0.055,0.0576,0.0569,0.0597,0.0529,0.0528,0.0486,0.0477,0.0426,0.0421,0.0305,0.0304,0.0365,0.0389,0.0382,0,0,0,0.0537,0.0574,0.0579,0.0594,0.0598,0.053,0.0528,0.0485,0.0444,0.0423,0.0304,0.0303,0.0364,0.0388,0.0381,0.0296,0,0,0,0.0561,0.0579,0.0571,0.0573,0.0519,0.0518,0.0451,0.0423,0.0407,0.0317,0.0316,0.0366,0.0389,0.0382,0.0247,0,0,0,0,0.0557,0.057,0.0547,0.0535,0.0483,0.045,0.0416,0.0404,0.0382,0.0391,0.0331,0.0342,0.0337,0.0283,0.0299,0.03,0.03,0.03,0.03,0.0605,0.0557,0.0533,0.0482,0.0447,0.0392,0.0366,0.0345,0.034,0.0355,0.0369,0.0371,0.0314,0.0339,0.0339,0.034,0.034,0.034,0.034,0.0598,0.0566,0.0531,0.0509,0.0458,0.0423,0.0352,0.0369,0.0357,0.0367,0.0359,0.0321,0.0345,0.0344,0.0343,0.0343,0.0342,0.0342,0.0342,0.0579,0.0565,0.0597,0.0582,0.0556,0.0498,0.0459,0.0453,0.0424,0.0423,0.0362,0.0396,0.0419,0.0444,0.0444,0.0444,0.0444,0.0445,0.0445,0.0567,0.0588,0.0633,0.0643,0.0645,0.0622,0.0566,0.0483,0.044,0.0408,0.0464,0.0406,0.0402,0.0422,0.0446,0.0446,0.0445,0.0445,0.0445,0.0513,0.0604,0.0637,0.0672,0.0663,0.0603,0.0607,0.0434,0.037,0.026,0.0367,0.0371,0.0334,0.0332,0.0349,0.0352,0.0351,0.035,0,0.0502,0.0535,0.0619,0.0642,0.0586,0.0558,0.0433,0.0321,0.0245,0.031,0.0277,0.0405,0.0405,0.0366,0.0362,0.0381,0,0,0,0.0472,0.0504,0.0529,0.059,0.0523,0.0391,0.037,0.0319,0.0375,0.0152,0.0324,0.0331,0.0227,0.045,0.0401,0.0397,0.0426,0,0]}]]